Regional Weather Roundup
Issued by NWS State College, PA

Home | Current Version | Previous Version | Graphics & Text | Print | Product List | Glossary On
Versions: 1 2 3 4 5 6 7 8 9 10 11 12 13 14 15 16 17 18 19 20 21 22 23 24 25 26 27 28 29 30 31 32 33 34 35 36 37 38 39 40 41 42 43 44 45 46 47 48 49 50
761
ASUS41 KCTP 241410
RWRCTP

REGIONAL WEATHER ROUNDUP
NATIONAL WEATHER SERVICE STATE COLLEGE PA
1000 AM EDT SAT SEP 24 2016

Note: "fair" indicates few or no clouds below 12,000 feet with no
significant weather and/or obstructions to visibility.

* = STATION THAT DOES NOT REPORT PRECIPITATION /E.G. RAIN...SNOW...ETC/
    THUNDER OR FOG.

PAZ002>004-007>009-013>016-020>023-029>032-241500-
WESTERN PENNSYLVANIA

CITY           SKY/WX    TMP DP  RH WIND       PRES   REMARKS
ERIE           SUNNY     62  48  60 NE14      30.23S
MEADVILLE      MOSUNNY   60  51  72 N13       30.22S
FRANKLIN*        N/A     59  52  77 N8        30.22S
NEW CASTLE     CLOUDY    63  58  83 NE10      30.20S
BEAVER COUNTY  CLOUDY    64  59  82 N7        30.18S
BUTLER*        CLOUDY    63  57  82 NE9       30.21R
PITTSBURGH INT CLOUDY    66  62  87 N12       30.17R
PITTSBURGH     CLOUDY    67  60  78 VRB6      30.16R
INDIANA*       CLOUDY    61  55  82 E8G14     30.21R
LATROBE        CLOUDY    64  64 100 NE12      30.17R
WASHINGTON CO* CLOUDY    64  61  88 N7        30.17R
$$

PAZ004>006-010>012-017>019-024>028-033>037-041-042-045-046-049>053-241500-
CENTRAL PENNSYLVANIA

CITY           SKY/WX    TMP DP  RH WIND       PRES   REMARKS
BRADFORD       MOSUNNY   53  45  74 NE7       30.24R
DUBOIS         CLOUDY    58  48  69 NE12      30.20R
CLEARFIELD     CLOUDY    58  49  72 NE8       30.21R
JOHNSTOWN      CLOUDY    57  57 100 NE9       30.18R FOG
ALTOONA        CLOUDY    59  49  69 NE10      30.18S
STATE COLLEGE  CLOUDY    59  46  63 NE10      30.19R
WILLIAMSPORT   CLOUDY    63  46  54 VRB5      30.18S
SELINSGROVE    CLOUDY    64  47  53 N12       30.18R
FT INDIANTOWN  CLOUDY    61  56  82 E5        30.14R
CAPITAL CITY   CLOUDY    64  55  72 NE5       30.15R
HARRISBURG     LGT RAIN  63  58  83 N6        30.14R
YORK           CLOUDY    64  58  80 NE10      30.14R
$$

PAZ038>040-043-044-047-048-054-055-060>062-067>071-241500-
EASTERN PENNSYLVANIA

CITY           SKY/WX    TMP DP  RH WIND       PRES   REMARKS
SCRANTON       MOSUNNY   61  47  59 N13       30.17R
MOUNT POCONO   PTSUNNY   54  48  80 N6        30.16R
ALLENTOWN      CLOUDY    63  52  67 NE8       30.15R
QUAKERTOWN*    CLOUDY    61  54  77 NE6       30.16R
READING        CLOUDY    60  57  89 NE5       30.14R
LANCASTER      CLOUDY    63  59  87 NE10      30.14R
COATESVILLE    CLOUDY    63  57  82 N8        30.15R
POTTSTOWN      CLOUDY    59  56  89 N7        30.16R
BLUE BELL      CLOUDY    59  55  88 NE5       30.12S
DOYLESTOWN     CLOUDY    63  58  83 N7        30.13R
WILLOW GROVE   NOT AVBL
NORTH PHILA    CLOUDY    61  57  87 NE9       30.14R
PHILADELPHIA   CLOUDY    63  56  78 NE14      30.13R
$$




USA.gov is the U.S. government's official web portal to all federal, state and local government web resources and services.